[[{"header":{"parameterUnit":"m.s-1","parameterCategory":1,"la1":30.2991,"la2":30.254,"lo1":-89.0895,"lo2":-89.0444,"dy":0.0017,"dx":0.0017,"nx":28,"ny":28,"refTime":"2023-09-10T21:00:00:Z","depth":0,"parameterNumber":2,"parameterNumberName":"U-component_of_WINDS"},"data":[0,0,0,0,0,0,0,0,0,0,0,0,0,0,0,0,0,0,0,0,0,0,0,0,0,0,0,0,0,0,0,0,0,0,0,0,0,0,0,0,0,0,0,0,0,0,0,0,0,0,0,0,0,0,0,0,0,0,-0.3004,-0.3003,0,-0.2919,-0.2918,-0.2917,-0.2849,-0.2849,-0.2848,-0.2847,-0.276,-0.2758,-0.2757,0,0,0,0,0,0,0,0,0,0,0,0,0,-0.3109,-0.3107,-0.3004,-0.3003,-0.3002,-0.2919,-0.2918,-0.2917,-0.2849,-0.2848,-0.2848,-0.2847,-0.2761,-0.2759,-0.2757,0,0,0,0,0,0,0,0,0,0,0,0,0,-0.3048,-0.3107,-0.3004,-0.2958,-0.2953,-0.2919,-0.2918,-0.2916,-0.2849,-0.2848,-0.2847,-0.2847,-0.2761,-0.2759,-0.2756,-0.2761,0,0,-0.2749,-0.2748,0,0,0,0,0,0,0,0,-0.3051,-0.3044,-0.2966,-0.2962,-0.2956,-0.2894,-0.2923,-0.2864,-0.285,-0.2889,-0.2847,-0.2846,-0.2805,-0.2799,-0.2785,-0.2757,-0.2753,-0.2748,-0.2747,-0.2746,-0.2745,0,0,0,0,0,0,0,-0.3055,-0.3047,-0.297,-0.2965,-0.2959,-0.2942,-0.2932,-0.2911,-0.2854,-0.2885,-0.288,-0.2871,-0.2802,-0.2788,-0.2783,-0.2752,-0.2748,-0.2746,-0.2745,-0.2744,-0.2722,-0.2723,0,0,0,0,0,0,-0.3067,-0.3051,-0.2973,-0.2968,-0.3002,-0.2941,-0.293,-0.2915,-0.2854,-0.2844,-0.2872,-0.2868,-0.2793,-0.2786,-0.2779,-0.278,-0.2746,-0.2743,-0.2742,-0.2721,-0.2722,-0.2723,0,0,0,0,0,0,-0.3069,-0.3061,-0.2976,-0.3008,-0.2996,-0.294,-0.2924,-0.2913,-0.2899,-0.2844,-0.2833,-0.2868,-0.2792,-0.2783,-0.2766,-0.2776,-0.2742,-0.274,-0.272,-0.2722,-0.2723,-0.2783,0,0,0,0,0,0,-0.3073,-0.3062,-0.3063,-0.3009,-0.2995,-0.2964,-0.2924,-0.2912,-0.2895,-0.2889,-0.2837,-0.2828,-0.279,-0.277,-0.2763,-0.2772,-0.2738,-0.2719,-0.2721,-0.2722,-0.278,-0.2786,-0.2792,0,0,0,0,0,-0.3077,-0.3083,-0.3063,-0.3054,-0.2995,-0.2965,-0.2957,-0.2914,-0.2896,-0.2896,-0.2861,-0.2829,-0.2776,-0.2769,-0.2761,-0.2769,-0.2718,-0.272,-0.2722,-0.2777,-0.2785,-0.2791,0,0,0,0,0,0,-0.3141,-0.3075,-0.3052,-0.3042,-0.301,-0.2954,-0.2953,-0.2924,-0.2896,-0.2892,-0.284,-0.2829,-0.2817,-0.2791,-0.2784,-0.277,-0.2743,-0.2744,-0.2787,-0.2794,-0.28,-0.2807,-0.2736,0,0,0,0,0,-0.3153,-0.3135,-0.3079,-0.3075,-0.306,-0.301,-0.2995,-0.2965,-0.2929,-0.2915,-0.2878,-0.2845,-0.2821,-0.2806,-0.2781,-0.2776,-0.2763,-0.2777,-0.2783,-0.2789,-0.279,-0.2785,-0.279,-0.273,-0.273,-0.273,0,0,-0.318,-0.3142,-0.3133,-0.3087,-0.3058,-0.304,-0.2998,-0.2981,-0.2967,-0.2912,-0.2894,-0.2866,-0.2825,-0.2814,-0.2807,-0.2792,-0.2804,-0.2791,-0.2796,-0.2794,-0.2788,-0.2793,-0.2798,-0.2732,-0.2732,-0.2731,0,0,-0.3218,-0.3188,-0.3181,-0.3153,-0.311,-0.3077,-0.3076,-0.3024,-0.3003,-0.2984,-0.2943,-0.2925,-0.2885,-0.2858,-0.2839,-0.2867,-0.2837,-0.286,-0.2892,-0.2888,-0.2892,-0.2896,-0.2906,-0.2911,-0.2862,-0.2862,-0.2862,0,-0.3257,-0.3227,-0.3181,-0.3166,-0.3147,-0.3097,-0.3089,-0.3064,-0.3016,-0.3004,-0.2988,-0.2936,-0.2905,-0.2887,-0.2894,-0.288,-0.2876,-0.2866,-0.2895,-0.2899,-0.2902,-0.2911,-0.2915,-0.2865,-0.2865,-0.2864,-0.2864,0,-0.3276,-0.3257,-0.3257,-0.3211,-0.3191,-0.318,-0.3132,-0.3118,-0.309,-0.3058,-0.3039,-0.3,-0.2966,-0.296,-0.2932,-0.2937,-0.2929,-0.2905,-0.2877,-0.2911,-0.2919,-0.2922,-0.2869,-0.2868,-0.2867,-0.2867,0,0,-0.3353,-0.3282,-0.3282,-0.3261,-0.321,-0.3194,-0.3181,-0.3147,-0.3136,-0.3104,-0.3092,-0.3059,-0.3036,-0.3015,-0.2983,-0.2979,-0.3004,-0.2955,-0.2953,-0.2966,-0.3008,-0.3027,-0.3032,-0.2984,-0.2984,-0.2985,-0.3012,0,-0.3383,-0.3356,-0.3315,-0.3301,-0.3283,-0.3235,-0.3223,-0.3191,-0.3161,-0.3141,-0.3108,-0.3085,-0.3057,-0.3043,-0.3038,-0.3003,-0.3012,-0.3,-0.2972,-0.2972,-0.2984,-0.3036,-0.3055,-0.3082,-0.3014,-0.3015,-0.3015,0,-0.3415,-0.3386,-0.3371,-0.3322,-0.3312,-0.3303,-0.3269,-0.325,-0.3212,-0.3191,-0.3167,-0.3133,-0.3116,-0.3091,-0.3067,-0.306,-0.3046,-0.3027,-0.3027,-0.3023,-0.2996,-0.3033,-0.309,-0.3094,-0.3019,-0.3019,-0.3019,0,-0.3472,-0.3429,-0.3415,-0.3398,-0.334,-0.3334,-0.331,-0.3271,-0.3254,-0.3224,-0.3212,-0.3181,-0.3164,-0.3141,-0.31,-0.3085,-0.3081,-0.3052,-0.3063,-0.3064,-0.3064,-0.3065,-0.312,-0.3055,-0.3055,-0.3055,-0.3055,0,-0.3511,-0.3504,-0.344,-0.3431,-0.3421,-0.3373,-0.3365,-0.3336,-0.3302,-0.3287,-0.3244,-0.323,-0.3176,-0.3156,-0.3124,-0.3109,-0.3102,-0.3084,-0.3076,-0.3088,-0.309,-0.3078,-0.3075,-0.3056,-0.3056,-0.3056,-0.3056,0,-0.3573,-0.353,-0.3511,-0.3457,-0.3444,-0.3439,-0.3393,-0.3383,-0.3351,-0.3332,-0.3325,-0.3274,-0.3249,-0.3205,-0.3167,-0.3145,-0.3137,-0.3122,-0.315,-0.3144,-0.3158,-0.3157,-0.3207,-0.3211,-0.3144,-0.3145,-0.3146,0,-0.36,-0.3593,-0.3539,-0.3526,-0.3503,-0.3482,-0.3464,-0.3417,-0.34,-0.3356,-0.3351,-0.3323,-0.3297,-0.3259,-0.3218,-0.3189,-0.3173,-0.3193,-0.3169,-0.3182,-0.3174,-0.3175,-0.3174,-0.3199,-0.32,-0.32,-0.3201,0,-0.3653,-0.3632,-0.3608,-0.3576,-0.3556,-0.3529,-0.35,-0.3491,-0.3437,-0.342,-0.3394,-0.3374,-0.3335,-0.3307,-0.3272,-0.3247,-0.3215,-0.3209,-0.321,-0.3223,-0.3239,-0.323,-0.3165,-0.3208,-0.3207,-0.3207,-0.3206,-0.3206,-0.3698,-0.369,-0.3651,-0.3625,-0.3598,-0.3572,-0.3559,-0.3526,-0.3503,-0.3467,-0.3441,-0.3416,-0.3379,-0.3328,-0.3305,-0.3285,-0.3271,-0.3272,-0.3272,-0.3273,-0.3278,-0.3242,-0.3279,-0.3278,-0.3278,-0.3278,-0.3278,0,-0.3749,-0.3721,-0.3698,-0.3659,-0.3639,-0.361,-0.3576,-0.3562,-0.3541,-0.3508,-0.3484,-0.3454,-0.3426,-0.3384,-0.3353,-0.3346,-0.3331,-0.3339,-0.334,-0.3334,-0.3293,-0.3295,-0.3352,-0.3352,-0.3352,-0.3352,-0.3352,-0.3352,-0.3773,-0.3758,-0.3732,-0.3703,-0.3675,-0.3651,-0.3634,-0.361,-0.3583,-0.3551,-0.3529,-0.3501,-0.3465,-0.3431,-0.3405,-0.3393,-0.3384,-0.3398,-0.3382,-0.3344,-0.3337,-0.3331,-0.3332,-0.3396,-0.3396,-0.3424,-0.3425,-0.3425]},{"header":{"parameterUnit":"m.s-1","parameterCategory":1,"la1":30.2991,"la2":30.254,"lo1":-89.0895,"lo2":-89.0444,"dy":0.0017,"dx":0.0017,"nx":28,"ny":28,"refTime":"2023-09-10T21:00:00:Z","depth":0,"parameterNumber":3,"parameterNumberName":"V-component_of_WINDS"},"data":[0,0,0,0,0,0,0,0,0,0,0,0,0,0,0,0,0,0,0,0,0,0,0,0,0,0,0,0,0,0,0,0,0,0,0,0,0,0,0,0,0,0,0,0,0,0,0,0,0,0,0,0,0,0,0,0,0,0,-0.7546,-0.7546,0,-0.7515,-0.7515,-0.7514,-0.7471,-0.747,-0.7469,-0.7469,-0.7438,-0.7438,-0.7437,0,0,0,0,0,0,0,0,0,0,0,0,0,-0.7569,-0.7569,-0.7546,-0.7546,-0.7545,-0.7515,-0.7515,-0.7514,-0.7471,-0.747,-0.7469,-0.7468,-0.7438,-0.7438,-0.7437,0,0,0,0,0,0,0,0,0,0,0,0,0,-0.7551,-0.7569,-0.7546,-0.752,-0.7517,-0.7515,-0.7515,-0.7514,-0.7471,-0.747,-0.7469,-0.7468,-0.7438,-0.7438,-0.7437,-0.7458,0,0,-0.7437,-0.7437,0,0,0,0,0,0,0,0,-0.7552,-0.755,-0.7524,-0.7522,-0.7519,-0.7496,-0.7511,-0.7495,-0.7472,-0.7489,-0.7469,-0.7467,-0.7458,-0.7456,-0.7453,-0.7457,-0.7455,-0.7437,-0.7437,-0.7436,-0.7436,0,0,0,0,0,0,0,-0.7553,-0.7551,-0.7534,-0.7524,-0.7521,-0.751,-0.7506,-0.7508,-0.748,-0.7487,-0.7484,-0.7481,-0.7456,-0.7453,-0.7452,-0.7455,-0.7437,-0.7436,-0.7436,-0.7436,-0.7476,-0.7477,0,0,0,0,0,0,-0.7558,-0.7552,-0.7535,-0.7533,-0.7533,-0.7511,-0.7506,-0.7504,-0.748,-0.7475,-0.7482,-0.7479,-0.7454,-0.7452,-0.745,-0.7474,-0.7436,-0.7436,-0.7436,-0.7475,-0.7476,-0.7477,0,0,0,0,0,0,-0.7559,-0.7557,-0.7536,-0.7542,-0.7538,-0.7512,-0.7509,-0.7504,-0.7501,-0.7476,-0.7471,-0.7484,-0.7453,-0.7451,-0.7457,-0.7472,-0.7436,-0.7436,-0.7473,-0.7475,-0.7477,-0.7521,0,0,0,0,0,0,-0.756,-0.7557,-0.7565,-0.7542,-0.7538,-0.7543,-0.751,-0.7504,-0.75,-0.7496,-0.7476,-0.7472,-0.7452,-0.7457,-0.7457,-0.7471,-0.7436,-0.7472,-0.7474,-0.7476,-0.7518,-0.7525,-0.753,0,0,0,0,0,-0.7561,-0.7578,-0.7565,-0.7563,-0.7547,-0.7544,-0.7541,-0.7518,-0.7502,-0.7509,-0.7493,-0.7472,-0.7471,-0.7458,-0.7457,-0.7472,-0.7471,-0.7474,-0.7476,-0.7516,-0.7523,-0.753,0,0,0,0,0,0,-0.7604,-0.7575,-0.756,-0.7571,-0.756,-0.7536,-0.7545,-0.7526,-0.752,-0.7517,-0.7488,-0.7484,-0.7494,-0.7483,-0.747,-0.7492,-0.7468,-0.747,-0.7498,-0.7505,-0.7511,-0.7513,-0.7436,0,0,0,0,0,-0.7614,-0.7614,-0.7589,-0.7601,-0.7596,-0.7572,-0.757,-0.7553,-0.754,-0.7536,-0.752,-0.7509,-0.7506,-0.7505,-0.7501,-0.7516,-0.7512,-0.7526,-0.7532,-0.7537,-0.7539,-0.7548,-0.7555,-0.7486,-0.7486,-0.7486,0,0,-0.7637,-0.7621,-0.7622,-0.7609,-0.7599,-0.76,-0.7568,-0.757,-0.7571,-0.7536,-0.7541,-0.7529,-0.7515,-0.7527,-0.7531,-0.7518,-0.7557,-0.754,-0.7544,-0.7544,-0.7552,-0.7558,-0.7564,-0.7488,-0.7488,-0.7487,0,0,-0.7678,-0.7665,-0.7675,-0.7665,-0.765,-0.7633,-0.7636,-0.7615,-0.7606,-0.761,-0.7585,-0.7585,-0.758,-0.7572,-0.7567,-0.7606,-0.7587,-0.7605,-0.7635,-0.7644,-0.7649,-0.7654,-0.7669,-0.7675,-0.7608,-0.7608,-0.7608,0,-0.7708,-0.7708,-0.7682,-0.7686,-0.7682,-0.765,-0.766,-0.7651,-0.7636,-0.7634,-0.7619,-0.7614,-0.7602,-0.7612,-0.7621,-0.7618,-0.762,-0.7608,-0.765,-0.7655,-0.7659,-0.7673,-0.7679,-0.761,-0.761,-0.761,-0.761,0,-0.7746,-0.7746,-0.7756,-0.7741,-0.7738,-0.7745,-0.7721,-0.772,-0.7704,-0.7689,-0.7695,-0.768,-0.7673,-0.7673,-0.7657,-0.7681,-0.7674,-0.7656,-0.7631,-0.7668,-0.7681,-0.7686,-0.7614,-0.7613,-0.7612,-0.7612,0,0,-0.7813,-0.7785,-0.7789,-0.7783,-0.7764,-0.7764,-0.777,-0.7763,-0.7764,-0.7754,-0.7759,-0.7756,-0.7739,-0.7733,-0.7716,-0.7724,-0.7757,-0.7704,-0.7704,-0.7716,-0.7784,-0.7799,-0.7806,-0.7744,-0.7745,-0.7745,-0.7786,0,-0.7852,-0.786,-0.7838,-0.7852,-0.7853,-0.7823,-0.7828,-0.7817,-0.7804,-0.7803,-0.7788,-0.7787,-0.7764,-0.7761,-0.7767,-0.7752,-0.7771,-0.7748,-0.7749,-0.7749,-0.7755,-0.7812,-0.7828,-0.7866,-0.7791,-0.7791,-0.7792,0,-0.7898,-0.7891,-0.7905,-0.7887,-0.7886,-0.7891,-0.7883,-0.7883,-0.787,-0.786,-0.7854,-0.7834,-0.7839,-0.7815,-0.7822,-0.7808,-0.7806,-0.7799,-0.78,-0.78,-0.7774,-0.7815,-0.7878,-0.7884,-0.7799,-0.7799,-0.7798,0,-0.7948,-0.7942,-0.795,-0.7945,-0.7923,-0.7927,-0.7918,-0.7905,-0.7902,-0.7896,-0.7894,-0.7888,-0.7885,-0.7881,-0.786,-0.7844,-0.787,-0.7844,-0.7863,-0.7864,-0.787,-0.7871,-0.7936,-0.7868,-0.7868,-0.7868,-0.7868,0,-0.7994,-0.8004,-0.7972,-0.7977,-0.7988,-0.7962,-0.7974,-0.7962,-0.795,-0.7953,-0.7926,-0.793,-0.7901,-0.7902,-0.7885,-0.7894,-0.7893,-0.7885,-0.7881,-0.7888,-0.789,-0.7888,-0.7885,-0.7869,-0.7869,-0.7869,-0.7868,0,-0.8051,-0.803,-0.8037,-0.8016,-0.8011,-0.802,-0.8002,-0.8006,-0.7991,-0.7995,-0.7994,-0.7971,-0.797,-0.7949,-0.7943,-0.7932,-0.7948,-0.7939,-0.7953,-0.795,-0.7971,-0.797,-0.8038,-0.8046,-0.7972,-0.7973,-0.7974,0,-0.8082,-0.809,-0.8069,-0.8069,-0.8062,-0.8062,-0.8059,-0.8034,-0.8033,-0.802,-0.8026,-0.8023,-0.8019,-0.8019,-0.8002,-0.7998,-0.7989,-0.8013,-0.7988,-0.7996,-0.7991,-0.7991,-0.7992,-0.8019,-0.802,-0.802,-0.8021,0,-0.8141,-0.813,-0.8127,-0.8122,-0.8119,-0.8113,-0.8106,-0.8107,-0.808,-0.808,-0.8079,-0.8076,-0.8071,-0.8068,-0.8061,-0.8052,-0.8033,-0.8029,-0.8033,-0.8041,-0.805,-0.8047,-0.7969,-0.8028,-0.8027,-0.8026,-0.8026,-0.8026,-0.8187,-0.8193,-0.8179,-0.8178,-0.8169,-0.8163,-0.8166,-0.8152,-0.815,-0.8144,-0.8129,-0.8131,-0.8119,-0.8108,-0.8101,-0.8102,-0.809,-0.8096,-0.8097,-0.81,-0.8104,-0.8049,-0.81,-0.81,-0.81,-0.81,-0.81,0,-0.8245,-0.8235,-0.8234,-0.8224,-0.8223,-0.8204,-0.8195,-0.8196,-0.8197,-0.8188,-0.8185,-0.8184,-0.8182,-0.8165,-0.8161,-0.8165,-0.8156,-0.8165,-0.8165,-0.8164,-0.8115,-0.8112,-0.8173,-0.8173,-0.8173,-0.8173,-0.8173,-0.8173,-0.8275,-0.8284,-0.8272,-0.8277,-0.8267,-0.8268,-0.8265,-0.8259,-0.8252,-0.8252,-0.825,-0.8239,-0.8227,-0.8222,-0.8219,-0.8214,-0.8215,-0.8227,-0.8219,-0.8174,-0.8167,-0.816,-0.8158,-0.8227,-0.8227,-0.8268,-0.8269,-0.8269]}]]